www.pogodaiklimat.ru

Погода и климат >> Архив погоды >> Мексика >> Chilpancingo


ПОГОДА в Chilpancingo

  • Прогноз погоды в Chilpancingo
  • Монитор погоды в Chilpancingo
  • Климат города

АРХИВ ПОГОДЫ в Chilpancingo

Время (UTC), дата Ветер
(напр.,м/с)
 
Видим.   Явления Облачность Т
(С)
Тd
(С)
f
(%)
Тe
(С)
Тes
(С)
Комфортность P
(гПа)
Po
(гПа)
Тmin
(С)
Tmax
(С)
R
(мм)
R24
(мм)
S
(см)
18 12.09 СЗ 2 400 м 1/1 900 м
[Cu med, cong]
+28.3 +21.0 65 +36 +54 опасность
солнечного
удара
1011.3 875.4 +19.0 +30.8
21 12.09 ЮВ 3 400 м слабая морось 10/10 400 м
[Sc diur, vesp]
+25.2 +22.1 83 +33 +33 очень
душно
1003.0 868.5 2
00 13.09 400 м слабая морось 10/10 300 м
[Sc diur, vesp]
+23.1 +20.8 87 1007.8 873.8 2
03 13.09 В 4 400 м 6/0 1500 м
[Ac trans]
+20.4 +19.0 92 +24 +24 комфорт 1009.4 875.3 1
06 13.09 ЮВ 4 400 м 5/0 1500 м
[Ac As]
+19.3 +18.0 92 +21 +21 комфорт 1011.5 876.4 1
09 13.09 ЮВ 4 400 м 9/0 1500 м
[Ac As]
+18.5 +16.9 90 +19 +19 1011.8 875.7
12 13.09 Ю 2 400 м 6/0 1500 м
[Ac und]
+18.0 +16.2 89 +19 +19 1012.3 875.4 +18.0 +30.0
15 13.09 ЮВ 1 400 м 10/0 1500 м
[Ac As]
+20.1 +17.5 85 +24 +27 комфорт 1013.2 876.1
18 13.09 Ю 2 400 м 10/0 1500 м
[Ac As]
+23.8 +19.1 75 +29 +35 душно 1012.6 875.8 +17.9 +25.0
21 13.09 ЮВ 3 400 м туман на расстоянии 10/4 240 м
[Sc Ac As]
+20.8 +18.8 88 +25 +28 комфорт 1011.4 877.5 0.3
00 14.09 ЮВ 3 400 м слабая морось 10/5 100 м
[Sc Ac As]
+19.6 +18.5 93 +22 +23 комфорт 1011.5 875.4 2
03 14.09 ЮВ 2 400 м слабая морось 10/6 150 м
[Sc Ac As]
+18.7 +18.1 96 +20 +20 1013.6 877.2 2
06 14.09 В 1 400 м туман на расстоянии {морось} 8/8 50 м
[St]
+18.2 +17.9 98 +20 +20 1013.5 876.7 2
09 14.09 штиль 0 400 м слабая морось 10/6 90 м
[Sc Ac As]
+18.2 +18.1 99 +19 +19 1013.2 876.1 1
12 14.09 В 1 400 м слабая морось 10/6 50 м
[Sc Ac As]
+17.8 +17.5 98 +19 +19 1014.0 876.5 9
15 14.09 СЗ 1 400 м слабая морось туман 10/6 150 м
[Sc As op]
+19.6 +18.8 95 +23 +24 комфорт 1014.6 877.0 0.8
18 14.09 СЗ 2 400 м туман на расстоянии {морось} 10/4 300 м
[Cu hum As op]
+23.2 +20.8 86 +31 +33 очень
душно
1013.3 876.4 1
21 14.09 З 2 400 м дождь {морось} туман 10/5 270 м
[Cu med, cong As op]
+22.5 +20.6 89 +29 +31 очень
душно
1010.6 874.5 5
00 15.09 ЮВ 3 400 м слабый дождь {морось} 10/6 300 м
[Sc diur, vesp As op]
+22.3 +18.8 81 +28 +28 душно 1009.6 874.3 9
03 15.09 Ю 1 400 м дождь {морось} 8/4 150 м
[Sc diur, vesp As op]
+19.7 +18.4 92 +23 +23 комфорт 1011.6 876.2 0.1
06 15.09 штиль 0 400 м {дождь, морось} 8/8 50 м
[Sc diur, vesp]
+18.7 +18.3 98 +20 +20 1012.7 876.7 0.6
09 15.09 С 1 400 м 8/8 60 м
[Sc diur, vesp]
+18.7 +18.3 98 +21 +21 комфорт 1011.5 875.2
12 15.09 СЗ 2 400 м 8/3 120 м
[Sc As op]
+19.3 +18.5 95 +22 +22 комфорт 1012.3 875.4 +18.7 +25.1
15 15.09 СЗ 2 400 м 9/9 180 м
[Sc]
+20.7 +19.2 91 +26 +26 душно 1013.6 876.5
18 15.09 СЗ 2 400 м 6/3 630 м
[Cu med, cong Ac und]
+26.0 +20.9 74 +33 +43 очень
душно
1012.0 875.7 +18.7 +26.0
21 15.09 СЗ 2 400 м 4/3 900 м
[Cu med, cong Cc]
+29.3 +22.0 65 +38 +47 очень
душно
1008.0 873.3
00 16.09 ЮВ 4 400 м 3/3 600 м
[Sc diur, vesp]
+27.0 +22.1 75 +35 +35 очень
душно
1006.6 873.1 +18.7 +30.7
03 16.09 Ю 3 400 м туман местами 6/6 360 м
[St]
+22.2 +20.6 91 +29 +29 очень
душно
1008.5 875.1
06 16.09 ЮВ 2 400 м туман местами 9/5 200 м
[St Ac As]
+21.6 +20.5 93 +27 +27 душно 1009.5 875.7 +18.7 +30.7
09 16.09 Ю 2 400 м туман местами 9/5 300 м
[St Ac As]
+21.0 +19.6 92 +27 +27 душно 1009.2 874.6
12 16.09 С 1 400 м слабая морось {туман} 10/4 200 м
[Cb calv Ac As]
+18.0 +17.4 96 +19 +19 1013.2 877.1 28
15 16.09 СЗ 3 400 м {морось} 9/0 1500 м
[Ac As]
+19.4 +18.6 95 +22 +24 комфорт 1013.1 876.5 7
18 16.09 С 2 400 м {морось} 9/1 600 м
[Cu med, cong Ac As]
+25.8 +19.5 68 +31 +38 очень
душно
1012.7 876.4 7
21 16.09 Ю 1 400 м 9/1 750 м
[Cu med, cong Ac As]
+25.6 +19.6 69 +31 +36 очень
душно
1009.8 874.4
00 17.09 ЮВ 2 400 м туман местами 6/0 1500 м
[Ac trans]
+23.8 +19.7 78 +29 +29 душно 1008.8 874.1 +17.4 +26.6
03 17.09 ЮВ 2 400 м туман местами ясно +20.8 +19.1 90 +26 +26 душно 1009.8 875.3
06 17.09 В 2 400 м туман местами 8/8 200 м
[St]
+19.8 +19.0 95 +23 +23 комфорт 1011.7 876.4 +17.4 +26.6
09 17.09 ЮВ 1 400 м туман местами 10/6 360 м
[St Ac As]
+19.4 +17.4 88 +23 +23 комфорт 1010.9 875.1
12 17.09 В 1 400 м туман местами 3/0 1500 м
[Ac trans]
+18.0 +17.4 96 +19 +19 1013.0 876.3 +18.0 +26.6
15 17.09 СЗ 1 400 м 5/0 1500 м
[Ac cuf Ci]
+21.4 +18.6 84 +26 +32 душно 1014.2 877.1
18 17.09 З 4 400 м 9/1 750 м
[Cu hum As op Cs]
+26.8 +20.9 70 +34 +40 очень
душно
1013.0 876.7 +17.8 +27.0
21 17.09 ЮВ 3 400 м 5/3 900 м
[Cu med, cong Cs]
+29.6 +21.3 61 +37 +45 очень
душно
1008.9 874.1
00 18.09 Ю 2 400 м слабая морось {туман} 9/1 300 м
[St As op]
+22.8 +20.9 89 +30 +30 очень
душно
1008.7 874.7 0.5
03 18.09 Ю 2 400 м туман местами {морось} 4/1 240 м
[St Ac cuf]
+20.6 +19.2 92 +25 +25 комфорт 1010.5 876.4 1
06 18.09 В 2 400 м туман местами 5/5 200 м
[St]
+19.6 +18.8 95 +23 +23 комфорт 1011.8 876.9 1
09 18.09 Ю 1 100 м 4/4 60 м
[St]
+18.8 +18.2 96 +21 +21 комфорт 1012.3 876.4
12 18.09 СЗ 1 400 м 1/1 120 м
[Sc]
+18.4 +17.2 93 +20 +20 1013.2 876.3 +18.4 +30.5
15 18.09 СЗ 1 400 м 5/1 330 м
[Cu Sc Ac trans]
+22.8 +20.1 85 +29 +35 очень
душно
1014.3 877.3
18 18.09 СЗ 1 400 м 6/1 900 м
[Cu med, cong Ac trans Cc]
+28.2 +21.6 67 +47 +62 опасность
перегрева
1014.5 878.2 +18.4 +28.4
21 18.09 СЗ 2 400 м 6/3 930 м
[Cu med, cong Ac trans Cc]
+29.0 +21.5 64 +37 +44 очень
душно
1009.8 875.2
00 19.09 В 1 400 м туман местами 8/8 50 м
[St]
+20.2 +19.6 96 +25 +25 комфорт 1008.6 874.6 12
03 19.09 С 1 400 м 1/1 120 м
[Sc]
+19.6 +18.8 95 +23 +23 комфорт 1009.8 875.6
06 19.09 В 1 400 м 1/1 100 м
[Sc]
+18.6 +17.7 95 +21 +21 комфорт 1012.3 876.9 +18.4 +31.0
09 19.09 В 1 400 м туман местами 5/1 120 м
[Sc]
+19.0 +18.1 95 +22 +22 комфорт 1012.6 876.1
12 19.09 штиль 0 400 м туман местами 1/1 60 м
[St]
+18.2 +17.6 96 +19 +19 1013.4 876.3 +18.2 +31.0

 

Местоположение метеостанции Chilpancingo (Мексика): широта 17.55 долгота -99.50 высота над уровнем моря 1265 м.

В архиве по умолчанию представлена погода в Chilpancingo за последнюю неделю. Архивные данные за месяц целиком и за предыдущие месяцы, начиная с января 2011 года, Вы можете получить, выбрав интересующий диапазон дат из раскрывающегося списка и нажав кнопку "Ввод!".

Внимание! Время в таблицах - всемирное. Для получения местного времени необходимо прибавить поправку, которая в Chilpancingo равна -6 ч.

Смотрите также архив погоды в соседних городах и на ближайших метеорологических станциях:

Погода в Acapulco (Мексика) (92 км)
Погода в Zacatepec (Мексика) (133 км)
Погода в Cuernavaca (Мексика) (151 км)
Погода в Huajuapan De Leon (Мексика) (185 км)
Погода в Toluca (Мексика) (193 км)
Погода в Geografia Unam (Мексика) (200 км)
Погода в Mexico City (Мексика) (209 км)
Погода в Puebla (Мексика) (219 км)
Погода в Tlaxcala Airport (Мексика) (237 км)
Погода в Tlaxcala (Мексика) (237 км)

Пояснения к столбцам:

Ветер - указаны скорость ветра в м/с - средняя за 10 мин, порывы в срок и между сроками (в фигурных скобках) и направление, откуда дует ветер: С - северный, СВ - северо-восточный, В - восточный, ЮВ - юго-восточный, Ю - южный, ЮЗ - юго-западный, З - западный, СЗ - северо-западный.
Видимость - горизонтальная дальность видимости в метрах или километрах. При видимости от 1 до 10 км при отсутствии осадков обычно наблюдается дымка, при ухудшении видимости до 1 км и менее - туман. В сухую погоду видимость может ухудшаться дымом, пылью или мглою.
Явления - указаны атмосферные явления, наблюдавшиеся в срок или в последний час перед сроком; фигурными скобками обозначены явления, наблюдавшиеся между сроками (за 1-3 часа до срока); квадратными скобками обозначены град или гололедные отложения с указанием их диаметра в мм.
Облачность - указаны через наклонную черту общая и нижняя облачность в баллах и высота нижней границы облаков в метрах; квадратными скобками обозначены формы облаков: Ci - перистые, Cs - перисто-слоистые, Cc - перисто-кучевые, Ac - высококучевые, As - высокослоистые, Sc - слоисто-кучевые, Ns - слоисто-дождевые, Cu - кучевые, Cb - кучево-дождевые. Подробнее классификацию облаков см. в Атласе облаков (PDF).
T - Температура воздуха - температура, измеренная на высоте 2 м над землей.
Td - Температура точки росы - температура, при понижении до которой содержащийся в воздухе водяной пар достигнет насыщения.
f - Относительная влажность воздуха - влажноcть воздуха, измеренная на высоте 2 м над землей.
Te - Эффективная температура - температура, которую ощущает одетый по сезону человек в тени. Характеристика душности погоды. При расчете учитывается влияние влажности воздуха и скорости ветра на теплоощущения человека.
Tes - Эффективная температура на солнце - температура, которую ощущает человек, с поправкой на солнечный нагрев. Характеристика знойности погоды. Зависит от высоты солнца над горизонтом, облачности и скорости ветра. Ночью, в пасмурную погоду, а также при ветре 12 м/с и более поправка равна нулю.
P - Атмосферное давление - приведенное к уровню моря атмосферное давление.
Po - Атмосферное давление - измеренное на уровне метеостанции атмосферное давление.
Tmin - Минимальная температура - минимум температуры воздуха на высоте 2 м над землей.
Tmax - Максимальная температура - максимум температуры воздуха на высоте 2 м над землей.
R - Количество осадков - Количество выпавших осадков за период времени, мм. При наведении курсора мыши на число - период времени, за который выпало указанное количество осадков.
R24 - Количество осадков - Количество выпавших осадков за 24 часа, мм.
S - Снежный покров - Высота снежного покрова, см. При наведении курсора мыши на число - состояние снежного покрова и степень покрытия местности в баллах.